This is the latest recevied weather packets stored in our database for station/object KD7JB. If no packets are shown the sender has not sent any weather packets the latest 10 day(s).
| Time | Temp. | Humidity | Pressure | Rain* | Wind** | Luminosity | Snow |
|---|---|---|---|---|---|---|---|
| 1777789617 | 16.67° C | 43% | 1178.2 hPa | 0 mm | - | 0 W/m² | - |
| 1777789315 | 16.11° C | 43% | 1178.4 hPa | 0 mm | - | 0 W/m² | - |
| 1777789012 | 16.67° C | 44% | 1178.3 hPa | 0 mm | - | 0 W/m² | - |
| 1777788709 | 16.11° C | 45% | 1178.3 hPa | 0 mm | - | 0 W/m² | - |
| 1777788404 | 16.11° C | 45% | 1178.3 hPa | 0 mm | - | 0 W/m² | - |
| 1777788099 | 16.11° C | 45% | 1178.2 hPa | 0 mm | - | 0 W/m² | - |
| 1777787795 | 16.11° C | 45% | 1178.4 hPa | 0 mm | - | 0 W/m² | - |
| 1777787491 | 16.11° C | 45% | 1178.3 hPa | 0 mm | - | 0 W/m² | - |
| 1777787186 | 16.11° C | 45% | 1178.3 hPa | 0 mm | - | 0 W/m² | - |
| 1777786883 | 16.11° C | 45% | 1178.4 hPa | 0 mm | - | 0 W/m² | - |
| 1777786581 | 16.11° C | 45% | 1178.3 hPa | 0 mm | - | 0 W/m² | - |
| 1777786280 | 16.11° C | 45% | 1178.4 hPa | 0 mm | - | 0 W/m² | - |
| 1777785976 | 16.11° C | 45% | 1178.3 hPa | 0 mm | - | 0 W/m² | - |
| 1777785672 | 16.11° C | 44% | 1178.2 hPa | 0 mm | - | 0 W/m² | - |
| 1777785368 | 16.67° C | 39% | 1178.4 hPa | 0 mm | - | 0 W/m² | - |
| 1777785066 | 16.67° C | 38% | 1178.3 hPa | 0 mm | - | 0 W/m² | - |
| 1777784761 | 16.67° C | 38% | 1178.3 hPa | 0 mm | - | 0 W/m² | - |
| 1777784459 | 16.67° C | 39% | 1178.4 hPa | 0 mm | - | 0 W/m² | - |
| 1777784156 | 16.67° C | 41% | 1178.3 hPa | 0 mm | - | 0 W/m² | - |
| 1777783853 | 16.67° C | 39% | 1178.4 hPa | 0 mm | - | 0 W/m² | - |
| 1777783550 | 16.67° C | 36% | 1178.2 hPa | 0 mm | - | 0 W/m² | - |
| 1777783248 | 16.67° C | 36% | 1178.2 hPa | 0 mm | - | 0 W/m² | - |
| 1777782943 | 16.67° C | 36% | 1178.2 hPa | 0 mm | - | 0 W/m² | - |
| 1777782640 | 16.67° C | 36% | 1178.3 hPa | 0 mm | - | 0 W/m² | - |
| 1777782337 | 16.67° C | 36% | 1178.4 hPa | 0 mm | - | 0 W/m² | - |
* Rain latest hour (hover to see other rain measurements)
** Current wind speed in m/s (hover to see current wind gust speed)